Time,TemperatureF,DewpointF,PressureIn,WindDirection,WindDirectionDegrees,WindSpeedMPH,WindSpeedGustMPH,Humidity,HourlyPrecipIn,Conditions,Clouds,dailyrainin,SoftwareType,DateUTC
2013-01-25 00:05:00,55.0,50.9,30.15,North,0,0.0,0.0,86,0.00,RA,,0.00,WeatherDisplay:10.37,2013-01-25 08:05:00,
2013-01-25 00:10:00,55.0,50.9,30.15,North,0,0.0,0.0,86,0.00,OVC,,0.00,WeatherDisplay:10.37,2013-01-25 08:10:00,
2013-01-25 00:20:00,55.0,51.2,30.16,North,0,0.0,0.0,87,0.00,OVC,,0.00,WeatherDisplay:10.37,2013-01-25 08:20:00,
2013-01-25 00:25:00,54.9,50.8,30.16,North,0,0.0,0.0,86,0.00,OVC,,0.00,WeatherDisplay:10.37,2013-01-25 08:25:00,
2013-01-25 00:30:00,54.9,50.8,30.16,North,0,0.0,0.0,86,0.00,OVC,,0.00,WeatherDisplay:10.37,2013-01-25 08:30:00,
2013-01-25 00:40:00,54.9,51.1,30.16,North,0,0.0,0.0,87,0.00,OVC,,0.00,WeatherDisplay:10.37,2013-01-25 08:40:00,
2013-01-25 00:45:00,54.9,51.1,30.16,North,0,0.0,0.0,87,0.00,OVC,,0.00,WeatherDisplay:10.37,2013-01-25 08:45:00,
2013-01-25 00:50:00,54.9,51.1,30.16,North,0,0.0,0.0,87,0.00,OVC,,0.00,WeatherDisplay:10.37,2013-01-25 08:50:00,
2013-01-25 01:00:00,54.9,50.8,30.16,North,0,0.0,0.0,86,0.00,OVC,,0.00,WeatherDisplay:10.37,2013-01-25 09:00:00,
2013-01-25 01:10:00,54.9,50.8,30.16,North,0,0.0,0.0,86,0.00,OVC,,0.00,WeatherDisplay:10.37,2013-01-25 09:10:00,
2013-01-25 01:15:00,54.9,50.8,30.16,North,0,0.0,0.0,86,0.00,OVC,,0.00,WeatherDisplay:10.37,2013-01-25 09:15:00,
2013-01-25 01:20:00,55.0,51.2,30.16,North,0,0.0,0.0,87,0.00,OVC,,0.00,WeatherDisplay:10.37,2013-01-25 09:20:00,
2013-01-25 01:30:00,55.0,50.9,30.15,North,0,0.0,0.0,86,0.00,OVC,,0.00,WeatherDisplay:10.37,2013-01-25 09:30:00,
2013-01-25 01:35:00,55.0,50.9,30.16,North,0,0.0,0.0,86,0.00,OVC,,0.00,WeatherDisplay:10.37,2013-01-25 09:35:00,
2013-01-25 01:40:00,55.0,51.2,30.16,North,0,0.0,0.0,87,0.00,OVC,,0.00,WeatherDisplay:10.37,2013-01-25 09:40:00,
2013-01-25 01:50:00,55.1,51.3,30.16,North,0,0.0,0.0,87,0.00,OVC,,0.00,WeatherDisplay:10.37,2013-01-25 09:50:00,
2013-01-25 02:00:00,55.0,51.2,30.15,North,0,0.0,0.0,87,0.00,OVC,,0.00,WeatherDisplay:10.37,2013-01-25 10:00:00,
2013-01-25 02:05:00,55.0,51.2,30.15,North,0,0.0,0.0,87,0.00,OVC,,0.00,WeatherDisplay:10.37,2013-01-25 10:05:00,
2013-01-25 02:10:00,55.0,51.2,30.15,North,0,0.0,0.0,87,0.00,OVC,,0.00,WeatherDisplay:10.37,2013-01-25 10:10:00,
2013-01-25 02:15:00,55.0,51.2,30.15,North,0,0.0,0.0,87,0.00,OVC,,0.00,WeatherDisplay:10.37,2013-01-25 10:15:00,
2013-01-25 02:20:00,55.0,51.2,30.15,North,0,0.0,0.0,87,0.00,OVC,,0.00,WeatherDisplay:10.37,2013-01-25 10:20:00,
2013-01-25 02:25:00,54.9,51.1,30.15,North,0,0.0,0.0,87,0.00,OVC,,0.00,WeatherDisplay:10.37,2013-01-25 10:25:00,
2013-01-25 02:30:00,54.9,50.8,30.15,North,0,0.0,0.0,86,0.00,OVC,,0.00,WeatherDisplay:10.37,2013-01-25 10:30:00,
2013-01-25 02:35:00,54.9,50.8,30.15,North,0,0.0,0.0,86,0.00,OVC,,0.00,WeatherDisplay:10.37,2013-01-25 10:35:00,
2013-01-25 02:40:00,54.9,50.8,30.15,North,0,0.0,0.0,86,0.00,OVC,,0.00,WeatherDisplay:10.37,2013-01-25 10:40:00,
2013-01-25 02:45:00,54.9,51.1,30.15,North,0,0.0,0.0,87,0.00,OVC,,0.00,WeatherDisplay:10.37,2013-01-25 10:45:00,
2013-01-25 02:50:00,54.9,51.1,30.15,North,0,0.0,0.0,87,0.00,OVC,,0.00,WeatherDisplay:10.37,2013-01-25 10:50:00,
2013-01-25 02:55:00,54.9,51.1,30.15,North,0,0.0,0.0,87,0.00,OVC,,0.00,WeatherDisplay:10.37,2013-01-25 10:55:00,
2013-01-25 03:00:00,54.8,51.0,30.15,North,0,0.0,0.0,87,0.00,OVC,,0.00,WeatherDisplay:10.37,2013-01-25 11:00:00,
2013-01-25 03:05:00,54.8,51.0,30.15,North,0,0.0,0.0,87,0.00,OVC,,0.00,WeatherDisplay:10.37,2013-01-25 11:05:00,
2013-01-25 03:10:00,54.8,51.0,30.15,North,0,0.0,0.0,87,0.00,OVC,,0.00,WeatherDisplay:10.37,2013-01-25 11:10:00,
2013-01-25 03:20:00,54.8,51.0,30.14,North,0,0.0,1.0,87,0.00,OVC,,0.00,WeatherDisplay:10.37,2013-01-25 11:20:00,
2013-01-25 03:30:00,54.8,51.0,30.14,North,0,0.0,0.0,87,0.00,OVC,,0.00,WeatherDisplay:10.37,2013-01-25 11:30:00,
2013-01-25 03:35:00,54.9,51.1,30.14,North,0,0.0,0.0,87,0.00,OVC,,0.00,WeatherDisplay:10.37,2013-01-25 11:35:00,
2013-01-25 03:40:00,54.9,51.1,30.14,North,0,0.0,0.0,87,0.00,OVC,,0.00,WeatherDisplay:10.37,2013-01-25 11:40:00,
2013-01-25 03:50:00,54.9,51.1,30.13,North,0,0.0,0.0,87,0.00,OVC,,0.00,WeatherDisplay:10.37,2013-01-25 11:50:00,
2013-01-25 04:00:00,54.9,51.1,30.13,North,0,0.0,0.0,87,0.00,OVC,,0.00,WeatherDisplay:10.37,2013-01-25 12:00:00,
2013-01-25 04:05:00,54.9,51.1,30.13,North,0,0.0,0.0,87,0.00,OVC,,0.00,WeatherDisplay:10.37,2013-01-25 12:05:00,
2013-01-25 04:10:00,54.9,50.8,30.12,North,0,0.0,0.0,86,0.00,OVC,,0.00,WeatherDisplay:10.37,2013-01-25 12:10:00,
2013-01-25 04:20:00,54.8,50.7,30.12,North,0,0.0,1.0,86,0.00,OVC,,0.00,WeatherDisplay:10.37,2013-01-25 12:20:00,
2013-01-25 04:30:00,54.8,50.7,30.12,North,0,0.0,0.0,86,0.00,OVC,,0.00,WeatherDisplay:10.37,2013-01-25 12:30:00,
2013-01-25 04:35:00,54.8,50.7,30.13,North,0,0.0,0.0,86,0.00,OVC,,0.00,WeatherDisplay:10.37,2013-01-25 12:35:00,
2013-01-25 04:40:00,54.8,50.7,30.12,North,0,0.0,0.0,86,0.00,OVC,,0.00,WeatherDisplay:10.37,2013-01-25 12:40:00,
2013-01-25 04:45:00,54.7,50.6,30.12,North,0,0.0,0.0,86,0.00,OVC,,0.00,WeatherDisplay:10.37,2013-01-25 12:45:00,
2013-01-25 04:50:00,54.7,50.6,30.12,North,0,0.0,0.0,86,0.00,OVC,,0.00,WeatherDisplay:10.37,2013-01-25 12:50:00,
2013-01-25 04:55:00,54.6,50.5,30.12,North,0,0.0,0.0,86,0.00,OVC,,0.00,WeatherDisplay:10.37,2013-01-25 12:55:00,
2013-01-25 05:00:00,54.6,50.5,30.11,North,0,0.0,0.0,86,0.00,OVC,,0.00,WeatherDisplay:10.37,2013-01-25 13:00:00,
2013-01-25 05:05:00,54.6,50.5,30.11,North,0,0.0,0.0,86,0.00,OVC,,0.00,WeatherDisplay:10.37,2013-01-25 13:05:00,
2013-01-25 05:10:00,54.5,50.4,30.11,North,0,0.0,0.0,86,0.00,OVC,,0.00,WeatherDisplay:10.37,2013-01-25 13:10:00,
2013-01-25 05:15:00,54.5,50.4,30.11,North,0,0.0,0.0,86,0.00,OVC,,0.00,WeatherDisplay:10.37,2013-01-25 13:15:00,
2013-01-25 05:20:00,54.4,50.3,30.11,North,0,0.0,0.0,86,0.00,OVC,,0.00,WeatherDisplay:10.37,2013-01-25 13:20:00,
2013-01-25 05:25:00,54.3,50.2,30.11,North,0,0.0,0.0,86,0.00,OVC,,0.00,WeatherDisplay:10.37,2013-01-25 13:25:00,
2013-01-25 05:30:00,54.3,50.2,30.11,North,0,0.0,3.0,86,0.00,OVC,,0.00,WeatherDisplay:10.37,2013-01-25 13:30:00,
2013-01-25 05:35:00,54.2,50.1,30.12,North,0,0.0,3.0,86,0.00,OVC,,0.00,WeatherDisplay:10.37,2013-01-25 13:35:00,
2013-01-25 05:40:00,54.2,50.1,30.12,North,0,0.0,0.0,86,0.00,OVC,,0.00,WeatherDisplay:10.37,2013-01-25 13:40:00,
2013-01-25 05:45:00,54.1,50.0,30.12,North,0,0.0,0.0,86,0.00,OVC,,0.00,WeatherDisplay:10.37,2013-01-25 13:45:00,
2013-01-25 05:50:00,54.1,50.0,30.12,North,0,0.0,0.0,86,0.00,OVC,,0.00,WeatherDisplay:10.37,2013-01-25 13:50:00,
2013-01-25 05:55:00,54.0,49.9,30.12,North,0,0.0,0.0,86,0.00,OVC,,0.00,WeatherDisplay:10.37,2013-01-25 13:55:00,
2013-01-25 06:00:00,53.9,49.5,30.12,North,0,0.0,0.0,85,0.00,OVC,,0.00,WeatherDisplay:10.37,2013-01-25 14:00:00,
2013-01-25 06:05:00,53.8,49.4,30.12,North,0,0.0,0.0,85,0.00,SCT,,0.00,WeatherDisplay:10.37,2013-01-25 14:05:00,
2013-01-25 06:10:00,53.6,49.2,30.12,North,0,0.0,0.0,85,0.00,SCT,,0.00,WeatherDisplay:10.37,2013-01-25 14:10:00,
2013-01-25 06:15:00,53.5,49.4,30.12,North,0,0.0,0.0,86,0.00,SCT,,0.00,WeatherDisplay:10.37,2013-01-25 14:15:00,
2013-01-25 06:20:00,53.4,49.0,30.12,North,0,0.0,0.0,85,0.00,SCT,,0.00,WeatherDisplay:10.37,2013-01-25 14:20:00,
2013-01-25 06:30:00,53.1,48.7,30.12,North,0,0.0,0.0,85,0.00,SCT,,0.00,WeatherDisplay:10.37,2013-01-25 14:30:00,
2013-01-25 06:35:00,53.0,48.6,30.12,North,0,0.0,0.0,85,0.00,SCT,,0.00,WeatherDisplay:10.37,2013-01-25 14:35:00,
2013-01-25 06:40:00,52.9,48.8,30.12,North,0,0.0,0.0,86,0.00,SCT,,0.00,WeatherDisplay:10.37,2013-01-25 14:40:00,
2013-01-25 06:45:00,52.8,48.7,30.12,North,0,0.0,0.0,86,0.00,SCT,,0.00,WeatherDisplay:10.37,2013-01-25 14:45:00,
2013-01-25 06:55:00,52.7,48.3,30.12,North,0,0.0,0.0,85,0.00,SCT,,0.00,WeatherDisplay:10.37,2013-01-25 14:55:00,
2013-01-25 07:00:00,52.6,48.5,30.12,North,0,0.0,0.0,86,0.00,SCT,,0.00,WeatherDisplay:10.37,2013-01-25 15:00:00,
2013-01-25 07:05:00,52.5,48.4,30.12,North,0,0.0,0.0,86,0.00,CLR,,0.00,WeatherDisplay:10.37,2013-01-25 15:05:00,
2013-01-25 07:10:00,52.4,48.3,30.12,North,0,0.0,0.0,86,0.00,CLR,,0.00,WeatherDisplay:10.37,2013-01-25 15:10:00,
2013-01-25 07:15:00,52.4,48.0,30.12,North,0,0.0,0.0,85,0.00,CLR,,0.00,WeatherDisplay:10.37,2013-01-25 15:15:00,
2013-01-25 07:20:00,52.3,48.2,30.12,North,0,0.0,0.0,86,0.00,CLR,,0.00,WeatherDisplay:10.37,2013-01-25 15:20:00,
2013-01-25 07:30:00,52.1,48.1,30.12,North,0,0.0,0.0,86,0.00,CLR,,0.00,WeatherDisplay:10.37,2013-01-25 15:30:00,
2013-01-25 07:35:00,52.1,48.0,30.12,North,0,0.0,0.0,86,0.00,CLR,,0.00,WeatherDisplay:10.37,2013-01-25 15:35:00,
2013-01-25 07:40:00,52.0,47.6,30.11,North,0,0.0,0.0,85,0.00,CLR,,0.00,WeatherDisplay:10.37,2013-01-25 15:40:00,
2013-01-25 07:45:00,52.0,47.9,30.11,North,0,0.0,0.0,86,0.00,CLR,,0.00,WeatherDisplay:10.37,2013-01-25 15:45:00,
2013-01-25 07:50:00,52.0,47.9,30.11,North,0,0.0,0.0,86,0.00,CLR,,0.00,WeatherDisplay:10.37,2013-01-25 15:50:00,
2013-01-25 07:55:00,51.9,47.8,30.11,North,0,0.0,0.0,86,0.00,CLR,,0.00,WeatherDisplay:10.37,2013-01-25 15:55:00,
2013-01-25 08:00:00,51.9,47.8,30.11,North,0,0.0,0.0,86,0.00,CLR,,0.00,WeatherDisplay:10.37,2013-01-25 16:00:00,
2013-01-25 08:05:00,52.0,47.9,30.11,North,0,0.0,1.0,86,0.00,CLR,,0.00,WeatherDisplay:10.37,2013-01-25 16:05:00,
2013-01-25 08:10:00,52.1,48.3,30.11,North,0,0.0,0.0,87,0.00,CLR,,0.00,WeatherDisplay:10.37,2013-01-25 16:10:00,
2013-01-25 08:15:00,52.2,48.7,30.11,North,0,0.0,3.0,88,0.00,CLR,,0.00,WeatherDisplay:10.37,2013-01-25 16:15:00,
2013-01-25 08:20:00,52.3,48.9,30.11,North,0,0.0,0.0,88,0.00,CLR,,0.00,WeatherDisplay:10.37,2013-01-25 16:20:00,
2013-01-25 08:25:00,52.4,49.3,30.11,North,0,0.0,4.0,89,0.00,CLR,,0.00,WeatherDisplay:10.37,2013-01-25 16:25:00,
2013-01-25 08:30:00,52.5,49.4,30.11,North,0,0.0,0.0,89,0.00,CLR,,0.00,WeatherDisplay:10.37,2013-01-25 16:30:00,
2013-01-25 08:35:00,52.7,49.5,30.11,North,0,0.0,1.0,89,0.00,CLR,,0.00,WeatherDisplay:10.37,2013-01-25 16:35:00,
2013-01-25 08:40:00,52.9,49.7,30.11,North,0,0.0,0.0,89,0.00,CLR,,0.00,WeatherDisplay:10.37,2013-01-25 16:40:00,
2013-01-25 08:45:00,53.1,49.9,30.12,North,0,0.0,0.0,89,0.00,CLR,,0.00,WeatherDisplay:10.37,2013-01-25 16:45:00,
2013-01-25 08:55:00,53.6,50.7,30.12,North,0,0.0,1.0,90,0.00,CLR,,0.00,WeatherDisplay:10.37,2013-01-25 16:55:00,
2013-01-25 09:00:00,53.8,51.2,30.12,North,0,0.0,0.0,91,0.00,CLR,,0.00,WeatherDisplay:10.37,2013-01-25 17:00:00,
2013-01-25 09:05:00,54.1,51.5,30.12,North,0,0.0,0.0,91,0.00,CLR,,0.00,WeatherDisplay:10.37,2013-01-25 17:05:00,
2013-01-25 09:10:00,54.3,51.8,30.12,North,0,0.0,0.0,91,0.00,CLR,,0.00,WeatherDisplay:10.37,2013-01-25 17:10:00,
2013-01-25 09:15:00,54.7,52.4,30.12,North,0,0.0,0.0,92,0.00,CLR,,0.00,WeatherDisplay:10.37,2013-01-25 17:15:00,
2013-01-25 09:20:00,55.0,53.0,30.12,North,0,0.0,2.0,93,0.00,CLR,,0.00,WeatherDisplay:10.37,2013-01-25 17:20:00,
2013-01-25 09:25:00,55.3,53.6,30.12,North,0,1.0,3.0,94,0.00,CLR,,0.00,WeatherDisplay:10.37,2013-01-25 17:25:00,
2013-01-25 09:30:00,55.5,53.8,30.12,North,0,0.0,0.0,94,0.00,CLR,,0.00,WeatherDisplay:10.37,2013-01-25 17:30:00,
2013-01-25 09:35:00,55.8,54.1,30.12,North,0,0.0,0.0,94,0.00,CLR,,0.00,WeatherDisplay:10.37,2013-01-25 17:35:00,
2013-01-25 09:40:00,56.0,54.3,30.12,North,0,0.0,2.0,94,0.00,CLR,,0.00,WeatherDisplay:10.37,2013-01-25 17:40:00,
2013-01-25 09:50:00,56.5,54.8,30.12,North,0,1.0,3.0,94,0.00,CLR,,0.00,WeatherDisplay:10.37,2013-01-25 17:50:00,
2013-01-25 09:55:00,56.8,55.1,30.12,North,0,0.0,1.0,94,0.00,CLR,,0.00,WeatherDisplay:10.37,2013-01-25 17:55:00,
2013-01-25 10:05:00,57.3,55.6,30.12,North,0,0.0,0.0,94,0.00,CLR,,0.00,WeatherDisplay:10.37,2013-01-25 18:05:00,
2013-01-25 10:10:00,57.5,55.8,30.12,North,0,0.0,2.0,94,0.00,CLR,,0.00,WeatherDisplay:10.37,2013-01-25 18:10:00,
2013-01-25 10:20:00,58.0,56.3,30.13,North,0,0.0,0.0,94,0.00,CLR,,0.00,WeatherDisplay:10.37,2013-01-25 18:20:00,
2013-01-25 10:25:00,58.2,56.4,30.12,North,0,0.0,0.0,94,0.00,CLR,,0.00,WeatherDisplay:10.37,2013-01-25 18:25:00,
2013-01-25 10:35:00,58.5,56.5,30.12,North,0,0.0,0.0,93,0.00,CLR,,0.00,WeatherDisplay:10.37,2013-01-25 18:35:00,
2013-01-25 10:40:00,58.7,56.4,30.12,North,0,0.0,0.0,92,0.00,CLR,,0.00,WeatherDisplay:10.37,2013-01-25 18:40:00,
2013-01-25 10:45:00,58.9,56.6,30.12,North,0,0.0,2.0,92,0.00,CLR,,0.00,WeatherDisplay:10.37,2013-01-25 18:45:00,
2013-01-25 10:50:00,59.2,56.9,30.12,North,0,0.0,3.0,92,0.00,CLR,,0.00,WeatherDisplay:10.37,2013-01-25 18:50:00,
2013-01-25 10:55:00,59.4,56.8,30.11,North,1,0.0,1.0,91,0.00,CLR,,0.00,WeatherDisplay:10.37,2013-01-25 18:55:00,
2013-01-25 11:00:00,59.6,57.0,30.11,West,259,0.0,5.0,91,0.00,CLR,,0.00,WeatherDisplay:10.37,2013-01-25 19:00:00,
2013-01-25 11:05:00,59.8,56.9,30.11,SW,220,2.0,4.0,90,0.00,CLR,,0.00,WeatherDisplay:10.37,2013-01-25 19:05:00,
2013-01-25 11:10:00,59.9,57.0,30.11,SSW,192,2.0,5.0,90,0.00,CLR,,0.00,WeatherDisplay:10.37,2013-01-25 19:10:00,
2013-01-25 11:15:00,60.0,56.7,30.11,SSE,165,6.0,8.0,89,0.00,CLR,,0.00,WeatherDisplay:10.37,2013-01-25 19:15:00,
2013-01-25 11:20:00,60.0,56.4,30.11,SSE,150,6.0,9.0,88,0.00,CLR,,0.00,WeatherDisplay:10.37,2013-01-25 19:20:00,
2013-01-25 11:25:00,60.0,56.4,30.10,SSE,157,3.0,7.0,88,0.00,CLR,,0.00,WeatherDisplay:10.37,2013-01-25 19:25:00,
2013-01-25 11:30:00,59.9,56.0,30.10,SSE,164,3.0,8.0,87,0.00,CLR,,0.00,WeatherDisplay:10.37,2013-01-25 19:30:00,
2013-01-25 11:40:00,59.9,55.7,30.10,SSW,195,1.0,5.0,86,0.00,CLR,,0.00,WeatherDisplay:10.37,2013-01-25 19:40:00,
2013-01-25 11:45:00,59.8,55.3,30.10,SW,214,3.0,6.0,85,0.00,CLR,,0.00,WeatherDisplay:10.37,2013-01-25 19:45:00,
2013-01-25 11:50:00,59.8,55.3,30.10,SSW,211,5.0,7.0,85,0.00,CLR,,0.00,WeatherDisplay:10.37,2013-01-25 19:50:00,
2013-01-25 12:00:00,59.8,55.3,30.08,SSW,207,3.0,7.0,85,0.00,CLR,,0.00,WeatherDisplay:10.37,2013-01-25 20:00:00,
2013-01-25 12:05:00,59.8,55.6,30.08,SSW,204,2.0,5.0,86,0.00,CLR,,0.00,WeatherDisplay:10.37,2013-01-25 20:05:00,
2013-01-25 12:10:00,59.8,55.3,30.08,SSW,201,2.0,5.0,85,0.00,CLR,,0.00,WeatherDisplay:10.37,2013-01-25 20:10:00,
2013-01-25 12:15:00,59.9,55.3,30.08,SSW,198,5.0,6.0,85,0.00,CLR,,0.00,WeatherDisplay:10.37,2013-01-25 20:15:00,
2013-01-25 12:20:00,59.9,55.7,30.08,SSW,194,2.0,6.0,86,0.00,CLR,,0.00,WeatherDisplay:10.37,2013-01-25 20:20:00,
2013-01-25 12:25:00,60.0,55.8,30.07,South,179,2.0,5.0,86,0.00,CLR,,0.00,WeatherDisplay:10.37,2013-01-25 20:25:00,
2013-01-25 12:30:00,60.1,55.5,30.07,SSE,161,1.0,5.0,85,0.00,CLR,,0.00,WeatherDisplay:10.37,2013-01-25 20:30:00,
2013-01-25 12:35:00,60.1,55.6,30.06,South,179,2.0,5.0,85,0.00,CLR,,0.00,WeatherDisplay:10.37,2013-01-25 20:35:00,
2013-01-25 12:40:00,60.2,55.3,30.06,SSW,204,1.0,4.0,84,0.00,CLR,,0.00,WeatherDisplay:10.37,2013-01-25 20:40:00,
2013-01-25 12:50:00,60.3,55.4,30.06,SSW,208,2.0,5.0,84,0.00,CLR,,0.00,WeatherDisplay:10.37,2013-01-25 20:50:00,
2013-01-25 12:55:00,60.4,55.9,30.05,SSW,208,1.0,5.0,85,0.00,CLR,,0.00,WeatherDisplay:10.37,2013-01-25 20:55:00,
2013-01-25 13:00:00,60.5,55.6,30.05,SW,222,2.0,7.0,84,0.00,CLR,,0.00,WeatherDisplay:10.37,2013-01-25 21:00:00,
2013-01-25 13:05:00,60.6,55.7,30.05,SW,224,2.0,5.0,84,0.00,CLR,,0.00,WeatherDisplay:10.37,2013-01-25 21:05:00,
2013-01-25 13:10:00,60.8,55.9,30.05,SW,215,3.0,7.0,84,0.00,CLR,,0.00,WeatherDisplay:10.37,2013-01-25 21:10:00,
2013-01-25 13:15:00,60.9,56.0,30.05,SSW,209,5.0,7.0,84,0.00,CLR,,0.00,WeatherDisplay:10.37,2013-01-25 21:15:00,
2013-01-25 13:20:00,61.1,56.6,30.04,SSW,201,6.0,9.0,85,0.00,CLR,,0.00,WeatherDisplay:10.37,2013-01-25 21:20:00,
2013-01-25 13:25:00,61.2,56.3,30.04,SSW,209,6.0,10.0,84,0.00,CLR,,0.00,WeatherDisplay:10.37,2013-01-25 21:25:00,
2013-01-25 13:30:00,61.4,56.5,30.04,SW,217,5.0,9.0,84,0.00,CLR,,0.00,WeatherDisplay:10.37,2013-01-25 21:30:00,
2013-01-25 13:40:00,61.7,56.8,30.04,SSW,192,5.0,9.0,84,0.00,CLR,,0.00,WeatherDisplay:10.37,2013-01-25 21:40:00,
2013-01-25 13:45:00,61.9,57.3,30.04,South,171,5.0,9.0,85,0.00,CLR,,0.00,WeatherDisplay:10.37,2013-01-25 21:45:00,
2013-01-25 13:50:00,62.1,57.2,30.04,SSE,162,5.0,10.0,84,0.00,CLR,,0.00,WeatherDisplay:10.37,2013-01-25 21:50:00,
2013-01-25 13:55:00,62.2,57.3,30.04,SSE,162,5.0,10.0,84,0.00,CLR,,0.00,WeatherDisplay:10.37,2013-01-25 21:55:00,
2013-01-25 14:00:00,62.2,56.6,30.04,SSE,154,6.0,12.0,82,0.00,CLR,,0.00,WeatherDisplay:10.37,2013-01-25 22:00:00,
2013-01-25 14:05:00,62.1,56.2,30.04,SSE,158,2.0,8.0,81,0.00,CLR,,0.00,WeatherDisplay:10.37,2013-01-25 22:05:00,
2013-01-25 14:10:00,62.1,56.5,30.04,South,177,3.0,8.0,82,0.00,CLR,,0.00,WeatherDisplay:10.37,2013-01-25 22:10:00,
2013-01-25 14:20:00,62.0,56.5,30.03,SSW,208,3.0,6.0,82,0.00,CLR,,0.00,WeatherDisplay:10.37,2013-01-25 22:20:00,
2013-01-25 14:30:00,62.2,56.3,30.03,WSW,247,1.0,6.0,81,0.00,CLR,,0.00,WeatherDisplay:10.37,2013-01-25 22:30:00,
2013-01-25 14:35:00,62.3,56.4,30.03,WSW,240,3.0,7.0,81,0.00,CLR,,0.00,WeatherDisplay:10.37,2013-01-25 22:35:00,
2013-01-25 14:40:00,62.5,56.2,30.03,SW,224,2.0,6.0,80,0.00,CLR,,0.00,WeatherDisplay:10.37,2013-01-25 22:40:00,
2013-01-25 14:45:00,62.7,56.5,30.03,SSW,213,5.0,8.0,80,0.00,CLR,,0.00,WeatherDisplay:10.37,2013-01-25 22:45:00,
2013-01-25 14:50:00,63.0,56.7,30.03,SSW,207,1.0,7.0,80,0.00,CLR,,0.00,WeatherDisplay:10.37,2013-01-25 22:50:00,
2013-01-25 15:00:00,63.4,57.1,30.02,SW,217,3.0,8.0,80,0.00,CLR,,0.00,WeatherDisplay:10.37,2013-01-25 23:00:00,
2013-01-25 15:05:00,63.6,57.3,30.03,SSW,213,5.0,7.0,80,0.00,FEW,,0.00,WeatherDisplay:10.37,2013-01-25 23:05:00,
2013-01-25 15:10:00,63.9,57.6,30.02,SSW,209,3.0,8.0,80,0.00,FEW,,0.00,WeatherDisplay:10.37,2013-01-25 23:10:00,
2013-01-25 15:15:00,64.1,57.4,30.02,SSW,209,1.0,5.0,79,0.00,FEW,,0.00,WeatherDisplay:10.37,2013-01-25 23:15:00,
2013-01-25 15:20:00,64.2,57.5,30.02,SSW,211,0.0,5.0,79,0.00,FEW,,0.00,WeatherDisplay:10.37,2013-01-25 23:20:00,
2013-01-25 15:25:00,64.3,57.6,30.02,SSW,213,0.0,3.0,79,0.00,FEW,,0.00,WeatherDisplay:10.37,2013-01-25 23:25:00,
2013-01-25 15:35:00,64.4,57.4,30.02,SSW,213,0.0,0.0,78,0.00,FEW,,0.00,WeatherDisplay:10.37,2013-01-25 23:35:00,
2013-01-25 15:40:00,64.5,57.5,30.02,SSW,213,0.0,0.0,78,0.00,FEW,,0.00,WeatherDisplay:10.37,2013-01-25 23:40:00,
2013-01-25 15:50:00,64.6,57.6,30.02,NNW,336,1.0,7.0,78,0.00,FEW,,0.00,WeatherDisplay:10.37,2013-01-25 23:50:00,
2013-01-25 15:55:00,64.7,57.7,30.02,North,11,2.0,8.0,78,0.00,FEW,,0.00,WeatherDisplay:10.37,2013-01-25 23:55:00,
2013-01-25 16:00:00,64.6,57.6,30.02,NNE,12,2.0,8.0,78,0.00,FEW,,0.00,WeatherDisplay:10.37,2013-01-26 00:00:00,
2013-01-25 16:05:00,64.5,57.5,30.02,NNE,14,1.0,9.0,78,0.00,CLR,,0.00,WeatherDisplay:10.37,2013-01-26 00:05:00,
2013-01-25 16:10:00,64.5,57.5,30.02,NNE,15,0.0,6.0,78,0.00,CLR,,0.00,WeatherDisplay:10.37,2013-01-26 00:10:00,
2013-01-25 16:20:00,64.4,57.7,30.01,NNE,25,0.0,2.0,79,0.00,CLR,,0.00,WeatherDisplay:10.37,2013-01-26 00:20:00,
2013-01-25 16:25:00,64.3,57.0,30.01,NNE,27,0.0,7.0,77,0.00,CLR,,0.00,WeatherDisplay:10.37,2013-01-26 00:25:00,
2013-01-25 16:30:00,64.3,56.9,30.01,NNE,26,1.0,5.0,77,0.00,CLR,,0.00,WeatherDisplay:10.37,2013-01-26 00:30:00,
2013-01-25 16:40:00,64.2,56.8,30.01,NNE,14,1.0,6.0,77,0.00,CLR,,0.00,WeatherDisplay:10.37,2013-01-26 00:40:00,
2013-01-25 16:50:00,64.0,56.6,30.01,North,3,0.0,2.0,77,0.00,CLR,,0.00,WeatherDisplay:10.37,2013-01-26 00:50:00,
2013-01-25 17:00:00,63.8,56.4,30.01,NNE,12,1.0,7.0,77,0.00,CLR,,0.00,WeatherDisplay:10.37,2013-01-26 01:00:00,
2013-01-25 17:05:00,63.6,56.3,30.02,NNE,19,0.0,3.0,77,0.00,CLR,,0.00,WeatherDisplay:10.37,2013-01-26 01:05:00,
2013-01-25 17:10:00,63.5,56.2,30.02,NNE,14,1.0,6.0,77,0.00,CLR,,0.00,WeatherDisplay:10.37,2013-01-26 01:10:00,
2013-01-25 17:20:00,63.2,55.9,30.02,NNE,13,0.0,6.0,77,0.00,CLR,,0.00,WeatherDisplay:10.37,2013-01-26 01:20:00,
2013-01-25 17:30:00,62.9,55.5,30.02,North,1,1.0,4.0,77,0.00,CLR,,0.00,WeatherDisplay:10.37,2013-01-26 01:30:00,
2013-01-25 17:35:00,62.7,55.0,30.02,North,4,1.0,6.0,76,0.00,CLR,,0.00,WeatherDisplay:10.37,2013-01-26 01:35:00,
2013-01-25 17:40:00,62.5,55.2,30.02,North,4,0.0,7.0,77,0.00,CLR,,0.00,WeatherDisplay:10.37,2013-01-26 01:40:00,
2013-01-25 17:45:00,62.3,55.0,30.02,North,7,0.0,6.0,77,0.00,CLR,,0.00,WeatherDisplay:10.37,2013-01-26 01:45:00,
2013-01-25 17:50:00,62.1,54.8,30.02,North,9,1.0,8.0,77,0.00,CLR,,0.00,WeatherDisplay:10.37,2013-01-26 01:50:00,
2013-01-25 17:55:00,61.9,54.6,30.02,North,8,0.0,4.0,77,0.00,CLR,,0.00,WeatherDisplay:10.37,2013-01-26 01:55:00,
2013-01-25 18:00:00,61.8,54.5,30.02,North,8,0.0,7.0,77,0.00,CLR,,0.00,WeatherDisplay:10.37,2013-01-26 02:00:00,
2013-01-25 18:05:00,61.6,54.3,30.02,North,4,1.0,6.0,77,0.00,FEW,,0.00,WeatherDisplay:10.37,2013-01-26 02:05:00,
2013-01-25 18:10:00,61.4,54.1,30.02,North,360,0.0,4.0,77,0.00,FEW,,0.00,WeatherDisplay:10.37,2013-01-26 02:10:00,
2013-01-25 18:15:00,61.2,54.3,30.02,North,3,0.0,0.0,78,0.00,FEW,,0.00,WeatherDisplay:10.37,2013-01-26 02:15:00,
2013-01-25 18:20:00,61.0,54.1,30.02,North,358,1.0,5.0,78,0.00,FEW,,0.00,WeatherDisplay:10.37,2013-01-26 02:20:00,
2013-01-25 18:30:00,60.6,53.7,30.02,North,10,0.0,5.0,78,0.00,FEW,,0.00,WeatherDisplay:10.37,2013-01-26 02:30:00,
2013-01-25 18:35:00,60.5,53.6,30.02,North,3,0.0,0.0,78,0.00,FEW,,0.00,WeatherDisplay:10.37,2013-01-26 02:35:00,
2013-01-25 18:40:00,60.3,53.4,30.02,North,3,0.0,0.0,78,0.00,FEW,,0.00,WeatherDisplay:10.37,2013-01-26 02:40:00,
2013-01-25 18:45:00,60.2,53.6,30.02,North,3,0.0,3.0,79,0.00,FEW,,0.00,WeatherDisplay:10.37,2013-01-26 02:45:00,
2013-01-25 18:50:00,60.0,53.5,30.02,North,6,0.0,0.0,79,0.00,FEW,,0.00,WeatherDisplay:10.37,2013-01-26 02:50:00,
2013-01-25 19:00:00,59.7,53.2,30.02,NNW,348,0.0,1.0,79,0.00,FEW,,0.00,WeatherDisplay:10.37,2013-01-26 03:00:00,
2013-01-25 19:05:00,59.6,53.1,30.02,North,349,0.0,0.0,79,0.00,CLR,,0.00,WeatherDisplay:10.37,2013-01-26 03:05:00,
2013-01-25 19:10:00,59.4,52.9,30.02,North,0,0.0,2.0,79,0.00,CLR,,0.00,WeatherDisplay:10.37,2013-01-26 03:10:00,
2013-01-25 19:15:00,59.3,52.8,30.02,North,351,0.0,4.0,79,0.00,CLR,,0.00,WeatherDisplay:10.37,2013-01-26 03:15:00,
2013-01-25 19:20:00,59.1,52.6,30.02,North,349,0.0,0.0,79,0.00,CLR,,0.00,WeatherDisplay:10.37,2013-01-26 03:20:00,
2013-01-25 19:25:00,58.9,52.4,30.03,North,359,0.0,0.0,79,0.00,CLR,,0.00,WeatherDisplay:10.37,2013-01-26 03:25:00,
2013-01-25 19:30:00,58.8,52.6,30.03,North,359,0.0,0.0,80,0.00,CLR,,0.00,WeatherDisplay:10.37,2013-01-26 03:30:00,
2013-01-25 19:35:00,58.6,52.4,30.03,North,359,0.0,0.0,80,0.00,CLR,,0.00,WeatherDisplay:10.37,2013-01-26 03:35:00,
2013-01-25 19:45:00,58.3,52.1,30.03,North,359,0.0,0.0,80,0.00,CLR,,0.00,WeatherDisplay:10.37,2013-01-26 03:45:00,
2013-01-25 19:50:00,58.1,52.0,30.03,North,359,0.0,0.0,80,0.00,CLR,,0.00,WeatherDisplay:10.37,2013-01-26 03:50:00,
2013-01-25 19:55:00,58.0,51.9,30.03,North,359,0.0,0.0,80,0.00,CLR,,0.00,WeatherDisplay:10.37,2013-01-26 03:55:00,
2013-01-25 20:00:00,57.8,51.7,30.03,North,359,0.0,0.0,80,0.00,CLR,,0.00,WeatherDisplay:10.37,2013-01-26 04:00:00,
2013-01-25 20:05:00,57.6,51.5,30.03,North,359,0.0,0.0,80,0.00,CLR,,0.00,WeatherDisplay:10.37,2013-01-26 04:05:00,
2013-01-25 20:10:00,57.5,51.4,30.03,North,360,0.0,0.0,80,0.00,CLR,,0.00,WeatherDisplay:10.37,2013-01-26 04:10:00,
2013-01-25 20:15:00,57.5,51.7,30.03,North,1,0.0,0.0,81,0.00,CLR,,0.00,WeatherDisplay:10.37,2013-01-26 04:15:00,
2013-01-25 20:20:00,57.4,51.6,30.03,NNE,14,0.0,0.0,81,0.00,CLR,,0.00,WeatherDisplay:10.37,2013-01-26 04:20:00,
2013-01-25 20:25:00,57.3,51.9,30.03,NNE,26,0.0,1.0,82,0.00,CLR,,0.00,WeatherDisplay:10.37,2013-01-26 04:25:00,
2013-01-25 20:30:00,57.2,51.4,30.03,NNE,28,0.0,0.0,81,0.00,CLR,,0.00,WeatherDisplay:10.37,2013-01-26 04:30:00,
2013-01-25 20:35:00,57.1,51.3,30.03,NNE,28,0.0,0.0,81,0.00,CLR,,0.00,WeatherDisplay:10.37,2013-01-26 04:35:00,
2013-01-25 20:40:00,56.9,51.1,30.03,NNE,28,0.0,0.0,81,0.00,CLR,,0.00,WeatherDisplay:10.37,2013-01-26 04:40:00,
2013-01-25 20:45:00,56.8,51.0,30.03,NNE,28,0.0,0.0,81,0.00,CLR,,0.00,WeatherDisplay:10.37,2013-01-26 04:45:00,
2013-01-25 20:50:00,56.6,50.9,30.04,NNE,28,0.0,0.0,81,0.00,CLR,,0.00,WeatherDisplay:10.37,2013-01-26 04:50:00,
2013-01-25 20:55:00,56.5,50.7,30.03,NNE,28,0.0,0.0,81,0.00,CLR,,0.00,WeatherDisplay:10.37,2013-01-26 04:55:00,
2013-01-25 21:05:00,56.2,50.4,30.04,NNE,28,0.0,0.0,81,0.00,CLR,,0.00,WeatherDisplay:10.37,2013-01-26 05:05:00,
2013-01-25 21:10:00,56.0,50.3,30.04,NNE,28,0.0,0.0,81,0.00,CLR,,0.00,WeatherDisplay:10.37,2013-01-26 05:10:00,
2013-01-25 21:15:00,55.8,50.1,30.04,NNE,28,0.0,0.0,81,0.00,CLR,,0.00,WeatherDisplay:10.37,2013-01-26 05:15:00,
2013-01-25 21:20:00,55.6,49.9,30.04,NNE,28,0.0,0.0,81,0.00,CLR,,0.00,WeatherDisplay:10.37,2013-01-26 05:20:00,
2013-01-25 21:25:00,55.4,50.0,30.04,NNE,28,0.0,0.0,82,0.00,CLR,,0.00,WeatherDisplay:10.37,2013-01-26 05:25:00,
2013-01-25 21:30:00,55.3,49.9,30.04,NNE,28,0.0,0.0,82,0.00,CLR,,0.00,WeatherDisplay:10.37,2013-01-26 05:30:00,
2013-01-25 21:35:00,55.2,49.8,30.04,NNE,28,0.0,0.0,82,0.00,CLR,,0.00,WeatherDisplay:10.37,2013-01-26 05:35:00,
2013-01-25 21:40:00,55.0,49.9,30.04,NNE,28,0.0,0.0,83,0.00,CLR,,0.00,WeatherDisplay:10.37,2013-01-26 05:40:00,
2013-01-25 21:45:00,54.9,49.8,30.04,NNE,28,0.0,0.0,83,0.00,CLR,,0.00,WeatherDisplay:10.37,2013-01-26 05:45:00,
2013-01-25 21:50:00,54.7,49.7,30.04,NNE,28,0.0,1.0,83,0.00,CLR,,0.00,WeatherDisplay:10.37,2013-01-26 05:50:00,
2013-01-25 21:55:00,54.6,49.6,30.04,NNE,28,0.0,0.0,83,0.00,CLR,,0.00,WeatherDisplay:10.37,2013-01-26 05:55:00,
2013-01-25 22:00:00,54.6,49.5,30.04,NNE,28,0.0,0.0,83,0.00,CLR,,0.00,WeatherDisplay:10.37,2013-01-26 06:00:00,
2013-01-25 22:10:00,54.4,49.3,30.04,NNE,28,0.0,0.0,83,0.00,OVC,,0.00,WeatherDisplay:10.37,2013-01-26 06:10:00,
2013-01-25 22:20:00,54.2,49.5,30.03,NNE,28,0.0,0.0,84,0.00,OVC,,0.00,WeatherDisplay:10.37,2013-01-26 06:20:00,
2013-01-25 22:25:00,54.2,49.1,30.03,NNE,28,0.0,0.0,83,0.00,OVC,,0.00,WeatherDisplay:10.37,2013-01-26 06:25:00,
2013-01-25 22:30:00,54.1,49.3,30.03,NNE,28,0.0,0.0,84,0.00,OVC,,0.00,WeatherDisplay:10.37,2013-01-26 06:30:00,
2013-01-25 22:35:00,53.9,49.2,30.03,NNE,28,0.0,0.0,84,0.00,OVC,,0.00,WeatherDisplay:10.37,2013-01-26 06:35:00,
2013-01-25 22:40:00,53.8,49.1,30.03,NNE,28,0.0,0.0,84,0.00,OVC,,0.00,WeatherDisplay:10.37,2013-01-26 06:40:00,
2013-01-25 22:45:00,53.7,49.0,30.03,NNE,28,0.0,0.0,84,0.00,OVC,,0.00,WeatherDisplay:10.37,2013-01-26 06:45:00,
2013-01-25 22:50:00,53.6,48.9,30.03,NNE,28,0.0,0.0,84,0.00,OVC,,0.00,WeatherDisplay:10.37,2013-01-26 06:50:00,
2013-01-25 22:55:00,53.6,48.9,30.03,NNE,28,0.0,0.0,84,0.00,OVC,,0.00,WeatherDisplay:10.37,2013-01-26 06:55:00,
2013-01-25 23:00:00,53.5,48.8,30.03,NNE,28,0.0,0.0,84,0.00,OVC,,0.00,WeatherDisplay:10.37,2013-01-26 07:00:00,
2013-01-25 23:05:00,53.5,48.8,30.03,NNE,28,0.0,0.0,84,0.00,OVC,,0.00,WeatherDisplay:10.37,2013-01-26 07:05:00,
2013-01-25 23:10:00,53.4,48.7,30.03,NNE,28,0.0,0.0,84,0.00,OVC,,0.00,WeatherDisplay:10.37,2013-01-26 07:10:00,
2013-01-25 23:15:00,53.4,48.7,30.03,NNE,28,0.0,0.0,84,0.00,OVC,,0.00,WeatherDisplay:10.37,2013-01-26 07:15:00,
2013-01-25 23:20:00,53.3,48.6,30.03,NNE,28,0.0,0.0,84,0.00,OVC,,0.00,WeatherDisplay:10.37,2013-01-26 07:20:00,
2013-01-25 23:30:00,53.2,48.5,30.02,NNE,28,0.0,0.0,84,0.00,OVC,,0.00,WeatherDisplay:10.37,2013-01-26 07:30:00,
2013-01-25 23:35:00,53.2,48.8,30.02,NNE,28,0.0,2.0,85,0.00,OVC,,0.00,WeatherDisplay:10.37,2013-01-26 07:35:00,
2013-01-25 23:40:00,53.2,48.8,30.02,NNE,27,0.0,3.0,85,0.00,OVC,,0.00,WeatherDisplay:10.37,2013-01-26 07:40:00,
2013-01-25 23:45:00,53.2,48.8,30.02,NNE,25,0.0,2.0,85,0.00,OVC,,0.00,WeatherDisplay:10.37,2013-01-26 07:45:00,
2013-01-25 23:50:00,53.2,48.8,30.02,NNE,25,0.0,0.0,85,0.00,OVC,,0.00,WeatherDisplay:10.37,2013-01-26 07:50:00,